Terug naar catalogus

RIDU-SAT 1

ActiefWetenschapSSO
NORAD 64532·PAYLOAD·🇮🇩 Indonesia
Deze satellietnaam is nog niet bevestigd door officiële bronnen.

Gelanceerd Jun 23, 2025 vanaf Vandenberg Space Force Base

Loading…

Volgende Passages (komende 24 uur)

TLE

VersSource: Space-Track

Epoch: Sep 14, 2026, 18:31 UTC

1 64532U 25135E   26257.77154971  .00009410  00000-0  34834-3 0  9998
2 64532  97.4817  14.1555 0003793 193.5135 166.6003 15.27882057 68593

Volg RIDU-SAT 1 in realtime met AllMySat

Download on the App Store